Iliamna, AK

5:16 AM AKDT on April 25, 2017 (GMT -0800)
Iliamna

Weather History for PAIL - November, 2012

Change the Weather History Date:

Thursday, November 8, 2012

  Actual Average Record
Temperature  
Mean Temperature 22 °F -  
Max Temperature 39 °F 34 °F 50 °F (1979)
Min Temperature 5 °F 22 °F -6 °F (1956)
Degree Days  
Heating Degree Days 43    
Moisture  
Dew Point 31 °F    
Average Humidity 79    
Maximum Humidity 100    
Minimum Humidity 44    
Precipitation  
Precipitation 0.04 in - - ()
Sea Level Pressure  
Sea Level Pressure 30.09 in    
Wind  
Wind Speed 18 mph (East)    
Max Wind Speed 26 mph    
Max Gust Speed 37 mph    
Visibility 9 miles    
Events Rain , Snow    
Averages and records for this station are not official NWS values.
T = Trace of Precipitation, MM = Missing Value Source: NWS Daily Summary

Daily Weather History Graph

Daily Weather History Graph

Search for Another Location

Airport or City:

Trip Planner

Search our weather history database for the weather conditions in past years. The results will help you decide how hot, cold, wet, or windy it might be!

Date:

Astronomy

Nov. 08, 2012 Rise Set
Actual Time 9:00 AM AKST 5:05 PM AKST
Civil Twilight 8:13 AM AKST 5:52 PM AKST
Nautical Twilight 7:23 AM AKST 6:42 PM AKST
Astronomical Twilight 6:35 AM AKST 7:30 PM AKST
Moon 1:44 AM AKST (11/8) 3:05 PM AKST (11/8)
Length of Visible Light 9h 38m
Length of Day
8h 05m
Waning Crescent, 31% of the Moon is Illuminated
Nov 8
Waning Crescent
Nov 13
New
Nov 20
First Quarter
Nov 28
Full
Dec 6
Last Quarter

Hourly Weather History & Observations

Time (AKST) Temp. Windchill Dew Point Humidity Pressure Visibility Wind Dir Wind Speed Gust Speed Precip Events Conditions
12:53 AM 21.0 °F 12.4 °F 17.1 °F 85% 30.26 in 10.0 mi NNW 6.9 mph - N/A   Overcast
1:53 AM 24.1 °F 18.2 °F 16.0 °F 71% 30.24 in 10.0 mi North 4.6 mph - N/A   Overcast
3:53 AM 37.0 °F 25.6 °F 24.1 °F 59% 30.19 in 9.0 mi East 24.2 mph 34.5 mph 0.00 in Snow Light Snow
4:53 AM 36.0 °F 24.2 °F 25.0 °F 64% 30.17 in 9.0 mi East 24.2 mph 32.2 mph 0.00 in   Overcast
5:53 AM 35.1 °F 23.8 °F 30.0 °F 82% 30.18 in 6.0 mi ESE 20.7 mph 32.2 mph 0.00 in Snow Light Snow
6:53 AM 35.1 °F 23.3 °F 30.0 °F 82% 30.16 in 6.0 mi East 23.0 mph 33.4 mph 0.00 in Snow Light Snow
7:53 AM 36.0 °F 23.9 °F 30.0 °F 79% 30.14 in 10.0 mi East 25.3 mph 34.5 mph 0.00 in   Overcast
8:53 AM 37.0 °F 26.2 °F 28.9 °F 73% 30.15 in 10.0 mi East 21.9 mph 27.6 mph N/A   Overcast
9:53 AM 37.9 °F 29.2 °F 30.0 °F 73% 30.15 in 10.0 mi East 15.0 mph 24.2 mph N/A   Overcast
10:53 AM 37.9 °F 28.9 °F 30.9 °F 76% 30.14 in 10.0 mi East 16.1 mph 26.5 mph N/A   Overcast
11:53 AM 39.0 °F 29.0 °F 30.9 °F 73% 30.13 in 10.0 mi East 20.7 mph 27.6 mph N/A   Overcast
12:53 PM 39.9 °F 30.0 °F 30.9 °F 70% 30.12 in 10.0 mi East 21.9 mph 29.9 mph N/A   Overcast
1:53 PM 39.9 °F 30.2 °F 32.0 °F 73% 30.11 in 10.0 mi East 20.7 mph 26.5 mph N/A   Overcast
2:53 PM 39.9 °F 30.5 °F 32.0 °F 73% 30.09 in 10.0 mi East 19.6 mph 27.6 mph N/A   Overcast
3:53 PM 39.9 °F 30.0 °F 32.0 °F 73% 30.07 in 10.0 mi East 21.9 mph 32.2 mph N/A   Overcast
4:53 PM 39.9 °F 30.0 °F 33.1 °F 77% 30.06 in 10.0 mi East 21.9 mph 33.4 mph N/A   Overcast
5:53 PM 39.9 °F 30.0 °F 32.0 °F 73% 30.04 in 10.0 mi East 21.9 mph 31.1 mph N/A   Mostly Cloudy
6:53 PM 39.9 °F 30.8 °F 33.1 °F 77% 30.03 in 10.0 mi East 18.4 mph 32.2 mph N/A   Overcast
7:53 PM 39.0 °F 29.3 °F 35.1 °F 86% 30.02 in 6.0 mi East 19.6 mph 25.3 mph 0.03 in Rain Rain
8:04 PM 39.2 °F 29.3 °F 35.6 °F 87% 30.01 in 10.0 mi East 20.7 mph 29.9 mph 0.00 in Rain Light Rain
8:53 PM 37.9 °F 27.3 °F 35.1 °F 89% 30.02 in 9.0 mi East 21.9 mph 31.1 mph 0.01 in Rain Light Rain
9:22 PM 37.4 °F 26.4 °F 35.6 °F 93% 29.99 in 7.0 mi East 23.0 mph 34.5 mph 0.02 in Rain Light Rain
9:37 PM 37.4 °F 26.6 °F 35.6 °F 93% 29.99 in 9.0 mi East 21.9 mph 31.1 mph 0.03 in Rain Light Rain
9:53 PM 37.9 °F 26.6 °F 37.0 °F 97% 30.00 in 10.0 mi East 25.3 mph 32.2 mph 0.03 in Rain Light Rain
10:00 PM 37.4 °F 27.2 °F 37.4 °F 100% 29.98 in 10.0 mi East 19.6 mph 36.8 mph 0.00 in Rain Light Rain
10:42 PM 37.4 °F 25.6 °F 37.4 °F 100% 29.97 in 10.0 mi East 26.5 mph 35.7 mph 0.02 in Rain Light Rain
10:53 PM 37.9 °F 27.3 °F 37.9 °F 100% 29.98 in 10.0 mi East 21.9 mph 29.9 mph 0.02 in Rain Light Rain
11:53 PM 39.0 °F 28.5 °F - N/A% 29.96 in 10.0 mi East 23.0 mph 32.2 mph 0.00 in Rain Light Rain